Tracking 18980 objects as of 22-Feb-2018
HD Live streaming from Space Station
objects crossing your sky now

COSMOS 2087

Track COSMOS 2087 now!
COSMOS 2087 is classified as:


NORAD ID: 20707
Int'l Code: 1990-064A
Perigee: 4,285.1 km
Apogee: 36,105.0 km
Inclination: 68.9 °
Period: 718.2 minutes
Semi major axis: 26566 km
RCS: 8.1788 m2 (large)
Launch date: July 25, 1990
Source: Commonwealth of Independent States (former USSR) (CIS)
Launch site: PLESETSK MISSILE AND SPACE COMPLEX (PKMTR)
aabbcc
Your satellite tracking list
Your tracking list is empty




NASA's NSSDC Master Catalog

Two Line Element Set (TLE):
1 20707U 90064A   18052.38007920 -.00000830  00000-0  00000+0 0  9991
2 20707  68.9074   6.5444 5988842 110.6586 113.9167  2.00499039202059
Source of the keplerian elements: AFSPC